Location: Campestrin
(46.4667°N, 11.7167°E)
Time: 04:34:40
(UTC+00:00)

Cosmos 841 Rocket - Pass Details

Date: 18 April 2021
Orbit: 747 x 772 km, 74.0° (Epoch: 16 May)

Event Time Altitude Azimuth Distance (km) Brightness Sun altitude
Rises 21:44:46 0° 340° (NNW) 3,239 8.0 -29.1°
Reaches altitude 10° 21:47:12 10° 344° (NNW) 2,305 6.9 -29.3°
Enters shadow 21:51:31 54° 21° (NNE) 922 4.0 -29.6°
